DW7102 Weather Reports


time (UTC)temp
F
wind
direction
speed
knots
gust
knots
rain 1hr
in
rain 24hr
in
rain mn
in
humidity
%
barometer
mb
20260504190703 61 322 2.6 7.0 0.00 0.00 0.00 33 1000.4
20260504173702 58 254 0.9 6.1 0.00 0.00 0.00 32 1000.9
20260504170703 55 274 2.6 5.2 0.00 0.00 0.00 39 1001.3
20260504170203 55 258 1.7 7.0 0.00 0.00 0.00 40 1001.4
20260504160203 56 262 1.7 6.1 0.00 0.00 0.00 41 1001.7
20260504140703 49 37 0.9 2.6 0.00 0.00 0.00 61 1003.1
20260504140203 48 37 0.9 2.6 0.00 0.00 0.00 61 1003.1
20260504120203 35 105 0.0 1.7 0.00 0.00 0.00 81 1004.6
20260504110703 31 89 1.7 2.6 0.00 0.01 0.00 86 1004.7
20260504110204 31 83 0.9 2.6 0.00 0.01 0.00 87 1004.6
20260504100203 27 292 0.0 0.0 0.00 0.01 0.00 89 1004.7
20260504060201 30 292 0.0 0.9 0.00 0.02 0.00 88 1005.0
20260504050702 31 247 1.7 2.6 0.00 0.03 0.00 86 1005.2
20260504050201 31 246 1.7 2.6 0.00 0.03 0.00 86 1005.2
20260504043201 32 226 0.9 2.6 0.00 0.03 0.00 84 1005.3
20260504040701 33 234 0.9 1.7 0.00 0.03 0.00 83 1005.5
20260504030702 35 268 2.6 5.2 0.00 0.03 0.03 79 1005.7
20260504030202 35 271 1.7 5.2 0.00 0.03 0.03 79 1005.7
20260504020702 39 240 0.9 1.7 0.00 0.04 0.03 73 1006.0
20260504020202 39 239 0.9 5.2 0.00 0.04 0.03 72 1006.1
20260504013701 40 256 1.7 2.6 0.00 0.04 0.03 69 1006.2
20260504010702 41 265 1.7 2.6 0.00 0.04 0.03 66 1006.4
20260504003702 41 5 0.9 1.7 0.00 0.04 0.03 67 1006.1
20260504000204 42 274 0.9 4.3 0.00 0.04 0.03 65 1006.2
20260503233702 43 265 1.7 2.6 0.00 0.04 0.03 65 1006.2
20260503230702 44 285 2.6 5.2 0.00 0.04 0.03 63 1006.2
20260503230202 44 291 1.7 6.1 0.00 0.04 0.03 63 1006.3
20260503223702 44 257 0.9 5.2 0.00 0.04 0.03 61 1006.4
20260503223202 44 269 1.7 10.4 0.00 0.04 0.03 61 1006.3
20260503213202 46 268 1.7 8.7 0.00 0.04 0.03 58 1006.5
20260503210702 47 286 3.5 7.8 0.00 0.04 0.03 57 1006.6
20260503203203 47 263 4.3 12.2 0.00 0.04 0.03 58 1006.4
20260503200703 47 307 2.6 7.8 0.00 0.04 0.03 58 1006.4
20260503193202 48 310 2.6 10.4 0.00 0.04 0.03 57 1006.3